"Pseudo-MPEC" for P12oAYQ

Created 2026 Jul 26 18:35:06 UT using Find_Orb

Click here for an explanation of pseudo-MPECs

 
 Astrometry: 
     P12oAYQ*0C2026 07 24.57948423 50 23.925+07 00 30.86   ~7OFo 21.41wXNEOCPF51
     P12oAYQ 0C2026 07 24.59122123 50 24.367+07 00 51.47   ~7OFo 22.01wXNEOCPF51
     P12oAYQ 0C2026 07 24.60328023 50 24.826+07 01 12.58   ~7OFo 21.71wXNEOCPF51
     P12oAYQ 0C2026 07 24.61495323 50 25.272+07 01 33.03   ~7OFo 21.67wXNEOCPF51
     P12oAYQ 0C2026 07 26.49897123 51 42.114+07 56 26.64   ~7QDZ 21.66wXNEOCPF52
     P12oAYQ 0C2026 07 26.50857923 51 42.444+07 56 43.38   ~7QDZ 22.01wXNEOCPF52
     P12oAYQ 0C2026 07 26.52784423 51 43.085+07 57 17.20   ~7QDZ 21.80wXNEOCPF52

Station data:
(F51) Pan-STARRS 1, Haleakala  (N20.707234 W156.255910)  US/Hawaii.
   Observers J. Herman, T. Lowe, P. Minguez, A. Schultz, I. Smith. Measurers
   K. Chambers, T. de Boer, J. Fairlamb, H. Gao, M. Huber, C.-C. Lin, E.
   Magnier, Y. Ramanjooloo, R. Wainscoat, R. Weryk. 1.8-m Ritchey-Chrétien +
   CCD.
(F52) Pan-STARRS 2, Haleakala  (N20.707382 W156.255910)  US/Hawaii.
   Observers J. Herman, T. Lowe, P. Minguez, A. Schultz, I. Smith. Measurers
   K. Chambers, T. de Boer, J. Fairlamb, H. Gao, M. Huber, C.-C. Lin, E.
   Magnier, Y. Ramanjooloo, R. Wainscoat, R. Weryk. 1.8-m Ritchey-Chrétien +
   CCD.

Orbital elements:  P12oAYQ
   Perihelion 2026 Jul 7.807377 +/- 52.6 TT = 19:22:37.3 (JD 2461229.307377)
Epoch 2026 Jul 26.0 TT = JDT 2461247.5   Earth MOID: 0.4928   Ju: 0.1064
M   2.766788410 +/- 17              (J2000 ecliptic)             AutoNEOCP
n   0.152082986 +/- 0.118           Peri.    3.155995 +/- 33
a   3.476020216 +/- 1.81            Node   311.534011 +/- 3.5
e   0.56649207 +/- 0.192            Incl.   14.399498 +/- 2.4
P   6.48072                H 19.98  G  0.15   U 11.3  SR
q 1.506882323 +/- 0.0883    Q 5.445158108 +/- 3.5
From 7 observations 2026 July 24-26 (46.8 hr); mean residual 0".05
Residuals in arcseconds: 
260724 F51  .04+  .03+    260724 F51  .01+  .04-    260726 F52  .07-  .12+    
260724 F51  .03-  .03+    260726 F52  .00   .04-    
260724 F51  .02-  .02-    260726 F52  .06+  .08-    

Ephemerides (geocentric):
Date (UTC) HH   RA             Dec           delta  r     elong  mag " sig PA
---- --------  ------------   ------------  ------ ------ -----  --- --------
2026 07 26 19  23 51 52.799   +08 04 58.77  .71700 1.5201 121.7 21.6 4.36 147
2026 07 26 20  23 51 54.359   +08 06 11.20  .71687 1.5201 121.7 21.6 5.10 149
2026 07 26 21  23 51 55.914   +08 07 23.61  .71674 1.5202 121.7 21.6 5.86 150
2026 07 26 22  23 51 57.466   +08 08 36.01  .71660 1.5203 121.8 21.6 6.65 150
2026 07 26 23  23 51 59.013   +08 09 48.40  .71647 1.5203 121.8 21.6 7.47 151
2026 07 27 00  23 52 00.556   +08 11 00.77  .71634 1.5204 121.8 21.6 8.31 151
2026 07 27 01  23 52 02.094   +08 12 13.13  .71621 1.5204 121.8 21.6 9.18 152
2026 07 27 02  23 52 03.629   +08 13 25.47  .71608 1.5205 121.9 21.6 10.1 152
2026 07 27 03  23 52 05.159   +08 14 37.80  .71595 1.5206 121.9 21.6 11.0 152
2026 07 27 04  23 52 06.685   +08 15 50.11  .71582 1.5206 121.9 21.6 11.9 153
2026 07 27 05  23 52 08.206   +08 17 02.40  .71569 1.5207 121.9 21.6 12.9 153
2026 07 27 06  23 52 09.723   +08 18 14.68  .71556 1.5207 122.0 21.6 13.9 153
2026 07 27 07  23 52 11.236   +08 19 26.95  .71543 1.5208 122.0 21.6 14.9 153
2026 07 27 08  23 52 12.745   +08 20 39.20  .71530 1.5208 122.0 21.6 16.0 153
2026 07 27 09  23 52 14.249   +08 21 51.44  .71517 1.5209 122.0 21.6 17.0 153
2026 07 27 10  23 52 15.749   +08 23 03.66  .71504 1.5210 122.1 21.6 18.1 154
2026 07 27 11  23 52 17.245   +08 24 15.86  .71491 1.5210 122.1 21.6 19.2 154
2026 07 27 12  23 52 18.736   +08 25 28.05  .71478 1.5211 122.1 21.6 20.4 154
2026 07 27 13  23 52 20.223   +08 26 40.22  .71466 1.5211 122.1 21.6 21.6 154
2026 07 27 14  23 52 21.706   +08 27 52.38  .71453 1.5212 122.2 21.6 22.7 154
2026 07 27 15  23 52 23.184   +08 29 04.52  .71440 1.5213 122.2 21.6 24.0 154
2026 07 27 16  23 52 24.658   +08 30 16.65  .71427 1.5213 122.2 21.6 25.2 154
2026 07 27 17  23 52 26.128   +08 31 28.76  .71414 1.5214 122.2 21.6 26.5 154
2026 07 27 18  23 52 27.594   +08 32 40.85  .71401 1.5214 122.3 21.6 27.8 154
2026 07 27 19  23 52 29.055   +08 33 52.93  .71389 1.5215 122.3 21.6 29.1 154
2026 07 27 20  23 52 30.512   +08 35 04.99  .71376 1.5216 122.3 21.6 30.4 155
2026 07 27 21  23 52 31.965   +08 36 17.04  .71363 1.5216 122.3 21.6 31.8 155
2026 07 27 22  23 52 33.413   +08 37 29.07  .71351 1.5217 122.3 21.6 33.2 155
2026 07 27 23  23 52 34.857   +08 38 41.09  .71338 1.5217 122.4 21.6 34.6 155
2026 07 28 00  23 52 36.296   +08 39 53.09  .71325 1.5218 122.4 21.6 36.1 155
2026 07 28 01  23 52 37.732   +08 41 05.07  .71313 1.5219 122.4 21.6 37.6 155
2026 07 28 02  23 52 39.163   +08 42 17.03  .71300 1.5219 122.4 21.6 39.1 155
2026 07 28 03  23 52 40.589   +08 43 28.98  .71287 1.5220 122.5 21.6 40.6 155
2026 07 28 04  23 52 42.012   +08 44 40.92  .71275 1.5221 122.5 21.6 42.1 155
2026 07 28 05  23 52 43.429   +08 45 52.83  .71262 1.5221 122.5 21.6 43.7 155
2026 07 28 06  23 52 44.843   +08 47 04.74  .71249 1.5222 122.5 21.6 45.3 155
2026 07 28 07  23 52 46.252   +08 48 16.62  .71237 1.5222 122.6 21.6 46.9 155
2026 07 28 08  23 52 47.657   +08 49 28.49  .71224 1.5223 122.6 21.6 48.6 155
2026 07 28 09  23 52 49.058   +08 50 40.34  .71212 1.5224 122.6 21.6 50.3 155
2026 07 28 10  23 52 50.454   +08 51 52.17  .71199 1.5224 122.6 21.6 52.0 155
2026 07 28 11  23 52 51.846   +08 53 03.99  .71187 1.5225 122.7 21.6 53.7 155
2026 07 28 12  23 52 53.234   +08 54 15.79  .71174 1.5226 122.7 21.6 55.4 155
2026 07 28 13  23 52 54.617   +08 55 27.57  .71162 1.5226 122.7 21.6 57.2 155
2026 07 28 14  23 52 55.996   +08 56 39.34  .71150 1.5227 122.7 21.6 59.0 155
2026 07 28 15  23 52 57.371   +08 57 51.09  .71137 1.5227 122.8 21.6 60.9 155
2026 07 28 16  23 52 58.741   +08 59 02.82  .71125 1.5228 122.8 21.6 62.7 155
2026 07 28 17  23 53 00.107   +09 00 14.54  .71112 1.5229 122.8 21.6 64.6 156
2026 07 28 18  23 53 01.468   +09 01 26.23  .71100 1.5229 122.8 21.6 66.5 156